Flag for Germany Weather past 2 weeks in Tönisvorst, North Rhine-Westphalia, Germany

Now
57 °F

Passing clouds.


Feels Like: 57 °F
Forecast: 51 / 66 °F
Wind: 2 mph from Southwest

Location: Duesseldorf

Current Time: Aug 31, 2014 at 2:47:30 AM

Latest Report: Aug 31, 2014 at 2:00 AM


Visibility: 9 mi

Pressure: 30.00 "Hg

Humidity: 94%

Dew point: 55 °F

Location of TönisvorstLocation

Historic Weather in Tönisvorst — Graph

°F

Tönisvorst temperature yesterday

Maximum temperature yesterday: 65 °F (at 4:00 PM)
Minimum temperature yesterday: 58 °F (at 1:00 AM)
Average temperature yesterday: 62 °F

Past Weeks' High & Low Weather Summary

 TemperatureHumidityPressure
High72 °F (Aug 28, 3:00 PM)96% (Aug 21, 3:00 AM)30.10 "Hg (Aug 21, 3:00 AM)
Low45 °F (Aug 21, 6:00 AM)42% (Aug 27, 6:00 PM)29.63 "Hg (Aug 26, 6:00 AM)
Average58 °F77%29.94 "Hg
* Reported Aug 16 2:00 AM — Aug 31 2:00 AM, Tönisvorst, Weather by CustomWeather, © 2014

Note: Actual official high and low records may vary slightly from our data, if they occured in-between our weather recording intervals... More about our weather records

Advertising

Tönisvorst weather history for previous 24 hours

 ConditionsComfort  
Time TempWeatherWind HumidityBarometerVisibility
2:00 AM
Aug 31
57 °FPassing clouds.2 mph94%30.00 "Hg9 mi
1:00 AM57 °FOvercast.2 mph92%30.01 "Hg7 mi
12:00 AM57 °FOvercast.3 mph89%30.01 "Hg16 mi
10:00 PM
Aug 30
59 °FOvercast.5 mph92%30.01 "Hg16 mi
9:00 PM59 °FLow clouds.3 mph92%29.99 "Hg16 mi
8:00 PM59 °FSprinkles. Low clouds.5 mph90%29.98 "Hg7 mi
7:00 PM64 °FSprinkles. Overcast.6 mph78%29.97 "Hg6 mi
6:00 PM65 °FOvercast.8 mph75%29.99 "Hg28 mi
4:00 PM65 °FOvercast.7 mph74%30.00 "Hg22 mi
3:00 PM65 °FOvercast.6 mph75%30.00 "Hg25 mi
2:00 PM65 °FOvercast.8 mph75%30.01 "Hg22 mi
1:00 PM64 °FOvercast.8 mph80%30.02 "Hg19 mi
12:00 PM63 °FOvercast.8 mph78%30.02 "Hg25 mi
10:00 AM62 °FLight rain. Overcast.6 mph78%30.02 "Hg25 mi
9:00 AM62 °FOvercast.6 mph76%30.02 "Hg31 mi
8:00 AM61 °FOvercast.6 mph76%30.02 "Hg25 mi
7:00 AM62 °FOvercast.6 mph75%30.00 "Hg22 mi
6:00 AM61 °FOvercast.6 mph76%30.01 "Hg28 mi
4:00 AM60 °FOvercast.6 mph78%30.02 "Hg31 mi
3:00 AM61 °FOvercast.5 mph78%30.02 "Hg31 mi
2:00 AM59 °FPassing clouds.5 mph84%30.03 "Hg31 mi
Weather by CustomWeather, © 2014

See weather overviewHow to use our weather pages